User: anonymous   Login
Location: Unspecified
(0.0000°N, 0.0000°E)
Time: 19:19:21
(UTC+00:00)
Language:

GALILEO 9 (205) - Orbit

View from above orbital plane
View from above orbital plane
View from above satellite
View from above satellite

Ground track
Ground track

The orbit data is extracted from the following two-line orbital elements,

1 40889U 15045A   18137.95777198 -.00000033 +00000-0 +00000-0 0  9994
2 40889 056.7641 302.9936 0003160 043.9558 316.0385 01.70474926016683
Epoch (UTC): 17 May 2018 22:59:11
Eccentricity: 0.0003160
inclination: 56.7641°
perigee height: 23212 km
apogee height: 23231 km
right ascension of ascending node: 302.9936°
argument of perigee: 43.9558°
revolutions per day: 1.70474926
mean anomaly at epoch: 316.0385°
orbit number at epoch: 1668

The dashed part of the orbit path shows where the satellite is in the earth's shadow,  

DLR